EGUW

Details ICAO EGUW
Name RAF Wattisham
Region United Kingdom
Timezone Europe/London (UTC+1.0)
Plans Departing 2
Arriving 1
Stats Elevation 284 ft / 87 m (AMSL)
Location 52.127024° 0.955428°
Runways 1
Magnetic Variation 0.073° W
Sunrise 2018-05-21 03:54:51 UTC / 2018-05-21 04:54:51 Local
Sunset 2018-05-21 19:53:32 UTC / 2018-05-21 20:53:32 Local
Advertisement - Login to hide

Runways

ID Width Length Bearing (true) Bearing (mag) Surface Threshold Offset Overrun Length
05 151 ft / 46 m 7,922 ft / 2,415 m 47.82° 47.89° Asphalt 449 ft / 137 m 233 ft / 71 m
23 151 ft / 46 m 7,922 ft / 2,415 m 227.84° 227.91° Asphalt 0 ft / 0 m 610 ft / 186 m

Approach Navaids

Runway Type Ident Frequency Range Bearing (true) Bearing (mag) Slope Elevation
23 Localiser WT 111.10 MHz 18 nm / 33 km 232.51° 232.58° - 284 ft / 87 m (AMSL)
23 Glidescope WT 111.10 MHz 10 nm / 19 km 227.83° 227.90° 3.00° 284 ft / 87 m (AMSL)

Map

Weather


0- 5 10 15 20 25 30 35+ Temperature / ° C

Clouds and Precipitation
Forecast for 2018-05-21 12:00 UTC. Updated 14 minutes ago

Ground ~20,000 ft ~40,000 ft Winds

METAR

EGUW 211050Z 05008KT CAVOK 19/11 Q1016 BLU NOSIG

TAF

Not found

Frequencies

Tower 122.10 MHz Wattisham Tower
Approach 123.30 MHz Wattisham Approach
Warning: Do not use this data for real-world aviation or navigation. No guarantee of current accuracy is given.